Location: Fluertsh�userhof
(48.7537°N, 10.3850°E)
Time: 07:41:45
(UTC+00:00)

Cosmos 1943 - Pass Details

Date: 18 September 2020
Orbit: 833 x 850 km, 71.0° (Epoch: 24 October)

Event Time Altitude Azimuth Distance (km) Brightness Sun altitude
Rises 18:01:23 0° 331° (NNW) 3,400 7.0 -6.9°
Reaches altitude 10° 18:03:50 10° 331° (NNW) 2,464 6.2 -7.3°
Maximum altitude 18:09:30 88° 245° (WSW) 849 3.3 -8.2°
Drops below altitude 10° 18:15:10 10° 155° (SSE) 2,460 5.3 -9.2°
Sets 18:17:36 0° 155° (SSE) 3,394 6.0 -9.5°
